Location: Unspecified
(0.0000°N, 0.0000°E)
Time: 03:11:13
(UTC+00:00)

CUTE-I - Pass Details

Date: 16 December 2017
Orbit: 812 x 824 km, 98.7° (Epoch: 21 July)

Event Time Altitude Azimuth Distance (km) Brightness Sun altitude
Rises 19:05:52 0° 201° (SSW) 3,357 ? -16.0°
Reaches altitude 10° 19:09:15 10° 223° (SW) 2,422 ? -16.8°
Maximum altitude 19:12:11 15° 257° (WSW) 2,089 ? -17.5°
Drops below altitude 10° 19:15:07 10° 290° (WNW) 2,417 ? -18.1°
Sets 19:18:31 0° 313° (NW) 3,346 ? -18.9°
